• Join FlightAware (Why Join?)
  • Login
  • US Flag 
12:46PM EST


 

Airport Tracker/Info


-or-


 

Live Flight TrackerFlight Track Log ✈ CTL337 ✈ 11-Jun-2013 ✈ KBKL - KHAO

Flight Track Log - Related Links

Times and Time Zones

All times are in EDT time to prevent confusion due to time zone crossing. See the CTL337 flight status page for this flight to view local times or setup timezone preferences in your user account.

Time Position Orientation Groundspeed Altitude Reporting Facility
EDT Latitude Longitude Course Direction KTS MPH feet Rate Location/Type
08:51PM 41.5125 -81.6978 304° West 111 128 1,000  Level Cleveland Center
08:51PM 41.5167 -81.7061 304° West 105 121 1,300 847 Climbing Cleveland Center
08:52PM 41.5478 -81.7261 334° Northwest 123 142 2,200 537 Climbing Cleveland Center
08:53PM 41.5619 -81.7736 292° West 128 147 2,500 850 Climbing Cleveland Center
08:54PM 41.5678 -81.8069 283° West 71 82 4,000 744 Climbing Cleveland Center
08:55PM 41.5611 -81.8486 258° West 136 157 4,000 492 Level Cleveland Center
08:56PM 41.5564 -81.8900 261° West 96 110 5,000 991 Climbing Cleveland Center
08:57PM 41.5519 -81.9150 257° West 68 78 5,900 783 Climbing Cleveland Center
08:58PM 41.5350 -81.9450 233° Southwest 125 144 6,500 709 Climbing Cleveland Center
08:59PM 41.5136 -81.9753 227° Southwest 103 119 7,400 756 Climbing Cleveland Center
09:00PM 41.4883 -82.0050 221° Southwest 110 127 8,100 362 Climbing Cleveland Center
09:01PM 41.4650 -82.0378 226° Southwest 148 170 8,100  Level Cleveland Center
09:02PM 41.4333 -82.0731 220° Southwest 152 175 8,100 -50 Level Cleveland Center
09:03PM 41.4036 -82.1167 228° Southwest 155 178 8,000  Descending Cleveland Center
09:04PM 41.3697 -82.1547 220° Southwest 152 175 8,100 50 Climbing Cleveland Center
09:05PM 41.3400 -82.1928 224° Southwest 152 175 8,100 -31 Level Cleveland Center
09:07PM 41.2686 -82.2797 222° Southwest 153 176 8,000 -30 Descending Indianapolis Center
09:09PM 41.2383 -82.3194 225° Southwest 153 176 8,000  Level Indianapolis Center
09:10PM 41.2067 -82.3581 223° Southwest 153 176 8,000  Level Indianapolis Center
09:11PM 41.1747 -82.3967 222° Southwest 153 176 8,000  Level Indianapolis Center
09:12PM 41.1433 -82.4367 224° Southwest 155 178 8,000  Level Indianapolis Center
09:13PM 41.1128 -82.4742 223° Southwest 152 175 8,000  Level Indianapolis Center
09:14PM 41.0819 -82.5133 224° Southwest 152 175 8,000  Level Indianapolis Center
09:15PM 41.0500 -82.5539 224° Southwest 155 178 8,000  Level Indianapolis Center
09:16PM 41.0200 -82.5914 223° Southwest 151 174 8,000  Level Indianapolis Center
09:17PM 40.9889 -82.6306 224° Southwest 152 175 8,000  Level Indianapolis Center
09:18PM 40.9575 -82.6692 223° Southwest 152 175 8,000  Level Indianapolis Center
09:19PM 40.9189 -82.7144 222° Southwest 156 180 8,000  Level Indianapolis Center
09:20PM 40.8864 -82.7522 221° Southwest 155 178 8,000  Level Indianapolis Center
09:21PM 40.8556 -82.7925 225° Southwest 155 178 8,000  Level Indianapolis Center
09:22PM 40.8247 -82.8294 222° Southwest 151 174 8,000  Level Indianapolis Center
09:23PM 40.7936 -82.8664 222° Southwest 150 173 8,000  Level Indianapolis Center
09:24PM 40.7639 -82.9053 225° Southwest 150 173 8,000  Level Indianapolis Center
09:25PM 40.7317 -82.9425 221° Southwest 151 174 8,000  Level Indianapolis Center
09:26PM 40.7019 -82.9794 223° Southwest 148 170 8,000  Level Indianapolis Center
09:27PM 40.6711 -83.0156 222° Southwest 147 169 8,000  Level Indianapolis Center
09:28PM 40.6408 -83.0533 223° Southwest 147 169 8,000  Level Indianapolis Center
09:29PM 40.6086 -83.0892 220° Southwest 150 173 8,000  Level Indianapolis Center
09:30PM 40.5781 -83.1269 223° Southwest 149 171 8,000 49 Level Indianapolis Center
09:31PM 40.5417 -83.1722 223° Southwest 152 175 8,100 49 Climbing Indianapolis Center
09:32PM 40.5114 -83.2100 223° Southwest 151 174 8,100 -195 Level Indianapolis Center
09:33PM 40.4778 -83.2481 221° Southwest 154 177 7,700 -495 Descending Indianapolis Center
09:34PM 40.4567 -83.2747 224° Southwest 171 197 7,300 -689 Descending Indianapolis Center
09:34PM 40.4417 -83.2894 217° Southwest 165 190 7,000 -600 Descending Indianapolis Center
09:35PM 40.4183 -83.3167 222° Southwest 173 199 6,700 -387 Descending Indianapolis Center
09:35PM 40.4044 -83.3322 220° Southwest 171 197 6,600 -393 Descending Indianapolis Center
09:36PM 40.3817 -83.3589 222° Southwest 171 197 6,300 -492 Descending Indianapolis Center
09:36PM 40.3697 -83.3750 226° Southwest 172 198 6,100 -327 Descending Indianapolis Center
09:37PM 40.3497 -83.3986 222° Southwest 170 196 6,000 -97 Descending Indianapolis Center
09:37PM 40.3358 -83.4178 226° Southwest 170 196 6,000 98 Level Indianapolis Center
09:38PM 40.3172 -83.4411 224° Southwest 160 184 6,100 492 Climbing Indianapolis Center
09:38PM 40.3039 -83.4575 223° Southwest 163 188 6,500 -98 Climbing Indianapolis Center
09:39PM 40.2875 -83.4786 225° Southwest 158 182 6,000 -484 Descending Indianapolis Center
09:39PM 40.2717 -83.4981 223° Southwest 160 184 6,000  Level Indianapolis Center
09:40PM 40.2506 -83.5233 222° Southwest 158 182 6,000  Level Indianapolis Center
09:40PM 40.2397 -83.5372 224° Southwest 158 182 6,000 98 Level Indianapolis Center
09:41PM 40.2183 -83.5631 223° Southwest 158 182 6,100 98 Climbing Indianapolis Center
09:41PM 40.2069 -83.5753 219° Southwest 157 181 6,100 -98 Level Indianapolis Center
09:42PM 40.1861 -83.6028 225° Southwest 158 182 6,000 -97 Descending Indianapolis Center
09:42PM 40.1708 -83.6217 223° Southwest 156 180 6,000  Level Indianapolis Center
09:43PM 40.1586 -83.6375 225° Southwest 152 175 6,000 98 Level Indianapolis Center
09:43PM 40.1408 -83.6594 223° Southwest 151 174 6,100 98 Climbing Indianapolis Center
09:44PM 40.1286 -83.6747 224° Southwest 150 173 6,100  Level Indianapolis Center
09:44PM 40.1103 -83.6969 223° Southwest 150 173 6,100  Level Indianapolis Center
09:45PM 40.0983 -83.7144 228° Southwest 151 174 6,100 -98 Level Indianapolis Center
09:45PM 40.0797 -83.7342 219° Southwest 150 173 6,000 -98 Descending Indianapolis Center
09:46PM 40.0664 -83.7514 225° Southwest 153 176 6,000  Level Indianapolis Center
09:46PM 40.0478 -83.7725 221° Southwest 152 175 6,000  Level Indianapolis Center
09:47PM 40.0342 -83.7908 226° Southwest 154 177 6,000 98 Level Indianapolis Center
09:47PM 40.0175 -83.8128 225° Southwest 154 177 6,100 90 Climbing Indianapolis Center
09:48PM 40.0017 -83.8331 224° Southwest 152 175 6,100 98 Level Indianapolis Center
09:48PM 39.9861 -83.8506 221° Southwest 153 176 6,200 98 Climbing Indianapolis Center
09:49PM 39.9672 -83.8722 221° Southwest 158 182 6,200 -98 Level Indianapolis Center
09:49PM 39.9514 -83.8872 216° Southwest 157 181 6,100 -222 Descending Indianapolis Center
09:50PM 39.9353 -83.9061 222° Southwest 161 185 6,000 -97 Descending Indianapolis Center
09:51PM 39.9181 -83.9258 221° Southwest 159 183 6,000  Level Indianapolis Center
09:51PM 39.9031 -83.9431 221° Southwest 155 178 6,000  Level Indianapolis Center
09:52PM 39.8853 -83.9622 220° Southwest 156 180 6,000 98 Level Indianapolis Center
09:52PM 39.8708 -83.9794 222° Southwest 152 175 6,100 98 Climbing Indianapolis Center
09:53PM 39.8539 -83.9994 222° Southwest 154 177 6,100 -82 Level Indianapolis Center
09:53PM 39.8339 -84.0264 226° Southwest 151 174 6,000  Descending Indianapolis Center
09:54PM 39.8169 -84.0439 218° Southwest 153 176 6,100 125 Climbing Indianapolis Center
09:54PM 39.8064 -84.0556 220° Southwest 163 188 6,100  Level Indianapolis Center
09:55PM 39.7808 -84.0825 219° Southwest 160 184 6,100  Level Indianapolis Center
09:55PM 39.7631 -84.1014 219° Southwest 165 190 6,100 98 Level Indianapolis Center
09:56PM 39.7447 -84.1189 216° Southwest 162 186 6,200 -90 Climbing Indianapolis Center
09:56PM 39.7264 -84.1428 225° Southwest 161 185 6,000 -98 Descending Indianapolis Center
09:57PM 39.7117 -84.1586 220° Southwest 162 186 6,100 -179 Climbing Indianapolis Center
09:57PM 39.6872 -84.1864 221° Southwest 160 184 5,800 -387 Descending Indianapolis Center
09:58PM 39.6772 -84.1986 223° Southwest 163 188 5,700 -506 Descending Indianapolis Center
09:59PM 39.6428 -84.2403 223° Southwest 166 191 5,100 -492 Descending Indianapolis Center
10:00PM 39.6083 -84.2828 224° Southwest 169 194 4,700 -393 Descending Indianapolis Center
10:01PM 39.5736 -84.3233 222° Southwest 168 193 4,300 -439 Descending Indianapolis Center
10:02PM 39.5392 -84.3600 219° Southwest 163 188 3,800 -390 Descending Indianapolis Center
10:03PM 39.5044 -84.3972 220° Southwest 160 184 3,500 -295 Descending Indianapolis Center
10:05PM 39.4292 -84.4374 218° Southwest  Level FlightAware Approximate
10:12PM 39.3638 -84.5219 218° Southwest  Level Estimated
10:13PM 39.3638 -84.5219 218° Southwest  Level Estimated
10:14PM 39.3638 -84.5219 218° Southwest  Level Estimated
10:15PM 39.3638 -84.5219 218° Southwest  Level Estimated
10:16PM 39.3638 -84.5219 218° Southwest  Level Estimated
10:17PM 39.3638 -84.5219 218° Southwest  Level Estimated